Tiempo cada hora Aberdeen

Hoy, 27 Octubre, Martes

Tiempo Temperatura Precipitaciones Viento Presión Humedad
00:00 -21°C° 0 mm 3 mps 731 mmHg 95%
01:00 -19°C° 0 mm 3 mps 731 mmHg 94%
02:00 -19°C° 0 mm 3 mps 730 mmHg 94%
03:00 -20°C° 0 mm 4 mps 730 mmHg 93%
04:00 -20°C° 0 mm 4 mps 730 mmHg 92%
05:00 -19°C° 0 mm 4 mps 730 mmHg 92%
06:00 -18°C° 0 mm 4 mps 729 mmHg 90%
07:00 -17°C° 0 mm 4 mps 729 mmHg 89%
08:00 -17°C° 0 mm 5 mps 729 mmHg 88%
09:00 -14°C° 0 mm 5 mps 728 mmHg 87%
10:00 -12°C° 0 mm 5 mps 728 mmHg 86%
11:00 -10°C° 0 mm 6 mps 727 mmHg 85%
12:00 -9°C° 0 mm 6 mps 726 mmHg 85%
13:00 -8°C° 0 mm 6 mps 725 mmHg 85%
14:00 -6°C° 0 mm 6 mps 724 mmHg 85%
15:00 -6°C° 0 mm 5 mps 724 mmHg 85%
16:00 -6°C° 0 mm 5 mps 724 mmHg 86%
17:00 -6°C° 0 mm 5 mps 723 mmHg 87%
18:00 -4°C° 0 mm 4 mps 723 mmHg 87%
19:00 -4°C° 0 mm 4 mps 723 mmHg 88%
20:00 -4°C° 0 mm 3 mps 723 mmHg 88%
21:00 -4°C° 0 mm 3 mps 723 mmHg 89%
22:00 -4°C° 0 mm 3 mps 723 mmHg 89%
23:00 -4°C° 0 mm 3 mps 723 mmHg 89%

Mañana, 28 Octubre, Miércoles

Tiempo Temperatura Precipitaciones Viento Presión Humedad
00:00 -4°C° 0 mm 3 mps 723 mmHg 90%
01:00 -2°C° 0 mm 3 mps 723 mmHg 90%
02:00 -2°C° 0 mm 3 mps 723 mmHg 90%
03:00 -2°C° 0 mm 3 mps 723 mmHg 89%
04:00 -2°C° 0 mm 3 mps 723 mmHg 88%
05:00 -2°C° 0 mm 3 mps 723 mmHg 88%
06:00 -1°C° 0 mm 3 mps 724 mmHg 88%
07:00 -1°C° 0 mm 3 mps 725 mmHg 89%
08:00 0°C° 0 mm 3 mps 725 mmHg 90%
09:00 +1°C° 0 mm 2 mps 726 mmHg 93%
10:00 +1°C° 0 mm 2 mps 726 mmHg 96%
11:00 +1°C° 0 mm 2 mps 726 mmHg 99%
12:00 +1°C° 0 mm 2 mps 727 mmHg 99%
13:00 +1°C° 0 mm 2 mps 727 mmHg 99%
14:00 +1°C° 0 mm 2 mps 727 mmHg 99%
15:00 +1°C° 0 mm 2 mps 728 mmHg 99%
16:00 -1°C° 0 mm 3 mps 728 mmHg 98%
17:00 -1°C° 0 mm 3 mps 728 mmHg 98%
18:00 -1°C° 0 mm 2 mps 729 mmHg 97%
19:00 -1°C° 0 mm 2 mps 729 mmHg 96%
20:00 -1°C° 0 mm 2 mps 729 mmHg 96%
21:00 -2°C° 0 mm 2 mps 729 mmHg 95%
22:00 -3°C° 0 mm 2 mps 729 mmHg 95%
23:00 -3°C° 0 mm 2 mps 729 mmHg 95%

Pasado mañana, 29 Octubre, Jueves

Tiempo Temperatura Precipitaciones Viento Presión Humedad
00:00 -4°C° 0 mm 2 mps 729 mmHg 95%
01:00 -4°C° 0 mm 2 mps 729 mmHg 94%
02:00 -2°C° 0 mm 1 mps 729 mmHg 94%
03:00 -2°C° 0 mm 1 mps 729 mmHg 94%
04:00 -3°C° 0 mm 1 mps 729 mmHg 94%
05:00 -3°C° 0 mm 1 mps 729 mmHg 94%
06:00 -3°C° 0 mm 1 mps 729 mmHg 94%
07:00 -2°C° 0 mm 1 mps 730 mmHg 94%
08:00 -2°C° 0 mm 1 mps 730 mmHg 95%
09:00 -1°C° 0 mm 1 mps 730 mmHg 96%
10:00 -2°C° 0 mm 2 mps 730 mmHg 98%
11:00 -1°C° 0 mm 2 mps 730 mmHg 99%
12:00 -1°C° 0 mm 2 mps 729 mmHg 99%
13:00 -1°C° 0 mm 2 mps 729 mmHg 99%
14:00 -1°C° 0 mm 2 mps 729 mmHg 99%
15:00 -1°C° 0 mm 3 mps 729 mmHg 99%
16:00 -1°C° 0 mm 3 mps 728 mmHg 98%
17:00 -1°C° 0 mm 3 mps 728 mmHg 98%
18:00 -1°C° 0 mm 3 mps 728 mmHg 97%
19:00 -2°C° 0 mm 3 mps 728 mmHg 96%
20:00 -2°C° 0 mm 3 mps 727 mmHg 95%
21:00 -4°C° 0 mm 3 mps 727 mmHg 95%
22:00 -5°C° 0 mm 3 mps 727 mmHg 95%
23:00 -4°C° 0 mm 2 mps 726 mmHg 95%

30 Octubre, Viernes

Tiempo Temperatura Precipitaciones Viento Presión Humedad
00:00 -4°C° 0 mm 2 mps 726 mmHg 96%
01:00 -4°C° 0 mm 2 mps 726 mmHg 96%
02:00 -4°C° 0 mm 2 mps 726 mmHg 96%
03:00 -4°C° 0 mm 2 mps 726 mmHg 97%
04:00 -2°C° 0 mm 1 mps 726 mmHg 97%
05:00 -1°C° 0 mm 1 mps 726 mmHg 97%
06:00 -1°C° 0 mm 1 mps 726 mmHg 97%
07:00 0°C° 0 mm 1 mps 726 mmHg 97%
08:00 0°C° 0 mm 1 mps 726 mmHg 97%
09:00 +1°C° 0 mm 1 mps 726 mmHg 98%
10:00 +1°C° 0 mm 1 mps 726 mmHg 99%
11:00 -1°C° 0 mm 2 mps 726 mmHg 100%
12:00 +1°C° 0 mm 2 mps 725 mmHg 100%
13:00 +1°C° 0 mm 2 mps 725 mmHg 100%
14:00 +1°C° 0 mm 2 mps 724 mmHg 100%
15:00 +1°C° 0 mm 2 mps 724 mmHg 99%
16:00 0°C° 0 mm 3 mps 724 mmHg 99%
17:00 0°C° 0 mm 3 mps 723 mmHg 99%
18:00 0°C° 0 mm 3 mps 722 mmHg 99%
19:00 0°C° 0 mm 3 mps 722 mmHg 99%
20:00 0°C° 0 mm 3 mps 721 mmHg 99%
21:00 -1°C° 0 mm 4 mps 721 mmHg 99%
22:00 0°C° 0 mm 4 mps 720 mmHg 98%
23:00 0°C° 0 mm 4 mps 719 mmHg 98%

31 Octubre, Sábado

Tiempo Temperatura Precipitaciones Viento Presión Humedad
00:00 0°C° 0 mm 4 mps 719 mmHg 97%
01:00 +1°C° 0 mm 3 mps 719 mmHg 96%
02:00 +1°C° 0 mm 2 mps 719 mmHg 95%
03:00 +1°C° 0 mm 3 mps 719 mmHg 92%
04:00 +1°C° 0 mm 3 mps 720 mmHg 90%
05:00 0°C° 0 mm 4 mps 721 mmHg 88%
06:00 0°C° 0 mm 4 mps 722 mmHg 89%
07:00 0°C° 0 mm 5 mps 723 mmHg 91%
08:00 0°C° 0 mm 5 mps 723 mmHg 93%
09:00 0°C° 0 mm 5 mps 724 mmHg 93%
10:00 +1°C° 0 mm 6 mps 725 mmHg 93%
11:00 +1°C° 0 mm 6 mps 726 mmHg 93%
12:00 +1°C° 0 mm 6 mps 727 mmHg 92%
13:00 +1°C° 0 mm 6 mps 728 mmHg 90%
14:00 +1°C° 0 mm 6 mps 729 mmHg 88%
15:00 0°C° 0 mm 5 mps 730 mmHg 86%
16:00 -1°C° 0 mm 5 mps 731 mmHg 83%
17:00 -2°C° 0 mm 5 mps 732 mmHg 80%
18:00 -2°C° 0 mm 5 mps 733 mmHg 82%
19:00 -4°C° 0 mm 5 mps 734 mmHg 83%
20:00 -3°C° 0 mm 4 mps 735 mmHg 84%
21:00 -4°C° 0 mm 4 mps 735 mmHg 85%
22:00 -4°C° 0 mm 3 mps 735 mmHg 86%
23:00 -5°C° 0 mm 3 mps 736 mmHg 87%

1 Noviembre, Domingo

Tiempo Temperatura Precipitaciones Viento Presión Humedad
00:00 -5°C° 0 mm 3 mps 736 mmHg 88%
01:00 -4°C° 0 mm 2 mps 736 mmHg 88%
02:00 -5°C° 0 mm 2 mps 736 mmHg 88%
03:00 -5°C° 0 mm 2 mps 736 mmHg 88%
04:00 -5°C° 0 mm 2 mps 736 mmHg 88%
05:00 -3°C° 0 mm 1 mps 737 mmHg 88%
06:00 -4°C° 0 mm 2 mps 737 mmHg 88%
07:00 -4°C° 0 mm 2 mps 737 mmHg 87%
08:00 -4°C° 0 mm 3 mps 737 mmHg 87%
09:00 -2°C° 0 mm 3 mps 736 mmHg 86%
10:00 -1°C° 0 mm 4 mps 736 mmHg 85%
11:00 0°C° 0 mm 4 mps 735 mmHg 84%
12:00 +1°C° 0 mm 4 mps 734 mmHg 82%
13:00 +3°C° 0 mm 4 mps 734 mmHg 80%
14:00 +4°C° 0 mm 3 mps 733 mmHg 79%
15:00 +3°C° 0 mm 3 mps 733 mmHg 79%
16:00 +2°C° 0 mm 3 mps 733 mmHg 79%
17:00 +1°C° 0 mm 3 mps 732 mmHg 79%
18:00 +2°C° 0 mm 2 mps 732 mmHg 78%
19:00 +2°C° 0 mm 2 mps 732 mmHg 78%
20:00 +1°C° 0 mm 2 mps 732 mmHg 77%
21:00 +1°C° 0 mm 2 mps 731 mmHg 78%
22:00 +1°C° 0 mm 2 mps 731 mmHg 79%
23:00 +1°C° 0 mm 2 mps 731 mmHg 79%
Mostrar más

Necesitamos Su Consentimiento

Meteoprog y nuestros Proveedores de Servicios pueden almacenar y acceder a sus datos personales como cookies, identificadores de dispositivo u otras tecnologías similares de su dispositivo y procesar dichos datos para personalizar contenido y anuncios, además de ofrecer funciones de redes sociales y analizar el tráfico.

  • Almacenar y/o acceder a información en su dispositivo

    Se puede almacenar o acceder a cookies, identificadores de dispositivo u otra información de su dispositivo para los fines anteriormente indicados.

  • Anuncios y contenido personalizados, medición de anuncios y contenido, percepciones del público, y desarrollo de productos

    Los anuncios y el contenido pueden personalizarse en base a su perfil. Se pueden añadir más datos para personalizar mejor los anuncios y contenidos. Se puede medir el rendimiento de los anuncios y contenidos. Se puede obtener la percepción sobre el público que ha visto los anuncios y contenidos. Dichos datos pueden usarse para desarrollar o mejorar la experiencia del usuario, sistemas y software.

Al hacer clic en ‘Estoy De Acuerdo’ usted permitirá el uso de las cookies, identificadores de dispositivo, balizas web u otras tecnologías similares indicadas. Su configuración puede cambiarse desde el navegador de su dispositivo.

Para ciertos fines, los intereses legítimos pueden ser considerados por encima del consentimiento. Puede leer más sobre ello en nuestra Política de Privacidad y Cookies.